Weather History for Houston Hull, TX

Change the Weather History Date:

Friday, March 21, 2014

  Actual Average Record
Temperature  
Mean Temperature 66 °F -  
Max Temperature 79 °F 73 °F 88 °F (1982)
Min Temperature 55 °F 50 °F 32 °F (1965)
Cooling Degree Days 2    
Growing Degree Days 16 (Base 50)    
Moisture  
Dew Point 59 °F    
Average Humidity 85    
Maximum Humidity 100    
Minimum Humidity 54    
Precipitation  
Precipitation 0.00 in - - ()
Sea Level Pressure  
Sea Level Pressure 30.00 in    
Wind  
Wind Speed 7 mph (South)    
Max Wind Speed 16 mph    
Max Gust Speed 25 mph    
Visibility 5 miles    
Events Fog    
Averages and records for this station are not official NWS values.
T = Trace of Precipitation, MM = Missing Value Source: NWS Daily Summary

Daily Weather History Graph

Daily Weather History Graph

Search for Another Location

Airport:

Trip Planner

Search our weather history database for the weather conditions in past years. The results will help you decide how hot, cold, wet, or windy it might be!

Date:

Astronomy

Mar. 21, 2014 Rise Set
Actual Time 7:25 AM CDT 7:34 PM CDT
Civil Twilight 7:01 AM CDT 7:58 PM CDT
Nautical Twilight 6:33 AM CDT 8:26 PM CDT
Astronomical Twilight 6:05 AM CDT 8:54 PM CDT
Moon No Moon Rise 10:37 AM CDT (3/21)
Length of Visible Light 12h 57m
Length of Day
12h 09m
Waning Gibbous, 75% of the Moon is Illuminated
Mar 21
Waning Gibbous
Mar 23
Last Quarter
Mar 30
New
Apr 7
First Quarter
Apr 15
Full

Hourly Weather History & Observations

Time (CDT) Temp. Dew Point Humidity Pressure Visibility Wind Dir Wind Speed Gust Speed Precip Events Conditions
12:53 AM 55.0 °F 52.0 °F 89% 30.07 in 10.0 mi South 3.5 mph - N/A   Clear
1:53 AM 55.0 °F 53.1 °F 93% 30.06 in 7.0 mi South 4.6 mph - N/A   Clear
2:53 AM 55.9 °F 54.0 °F 93% 30.04 in 4.0 mi South 3.5 mph - N/A   Clear
3:14 AM 55.0 °F 53.1 °F 93% 30.04 in 3.0 mi South 3.5 mph - N/A   Scattered Clouds
3:22 AM 55.0 °F 54.0 °F 96% 30.03 in 2.5 mi Calm Calm - N/A   Mostly Cloudy
3:27 AM 55.9 °F 54.0 °F 93% 30.03 in 3.0 mi South 4.6 mph - N/A   Mostly Cloudy
3:31 AM 57.0 °F 55.0 °F 93% 30.03 in 1.8 mi South 8.1 mph - N/A   Mostly Cloudy
3:35 AM 57.9 °F 55.9 °F 93% 30.02 in 0.5 mi South 10.4 mph - N/A Fog Fog
3:45 AM 57.9 °F 57.0 °F 97% 30.02 in 0.2 mi South 9.2 mph - N/A Fog Fog
3:53 AM 57.9 °F 57.9 °F 100% 30.02 in 0.5 mi South 8.1 mph - N/A Fog Fog
4:32 AM 59.0 °F 57.9 °F 96% 30.01 in 0.2 mi South 6.9 mph - N/A Fog Fog
4:53 AM 59.0 °F 57.9 °F 96% 30.01 in 0.5 mi South 8.1 mph - N/A Fog Fog
5:53 AM 60.1 °F 59.0 °F 96% 30.00 in 0.8 mi South 6.9 mph - N/A   Mist
6:09 AM 60.1 °F 59.0 °F 96% 29.99 in 1.2 mi South 4.6 mph - N/A   Overcast
6:32 AM 60.1 °F 59.0 °F 96% 30.00 in 2.5 mi South 3.5 mph - N/A   Overcast
6:53 AM 60.1 °F 59.0 °F 96% 30.01 in 2.0 mi South 4.6 mph - N/A   Overcast
7:12 AM 60.1 °F 59.0 °F 96% 30.01 in 4.0 mi South 6.9 mph - N/A   Overcast
7:25 AM 60.1 °F 59.0 °F 96% 30.01 in 2.5 mi South 8.1 mph - N/A   Overcast
7:39 AM 60.1 °F 59.0 °F 96% 30.01 in 1.0 mi South 4.6 mph - N/A   Overcast
7:53 AM 60.1 °F 60.1 °F 100% 30.02 in 1.2 mi South 4.6 mph - N/A   Overcast
8:01 AM 60.1 °F 60.1 °F 100% 30.02 in 0.5 mi South 5.8 mph - N/A Fog Fog
8:10 AM 61.0 °F 60.1 °F 97% 30.02 in 0.2 mi South 4.6 mph - N/A Fog Fog
8:37 AM 61.0 °F 60.1 °F 97% 30.02 in 0.8 mi South 8.1 mph - N/A   Mist
8:53 AM 62.1 °F 61.0 °F 96% 30.03 in 1.0 mi South 6.9 mph - N/A   Overcast
8:58 AM 62.1 °F 61.0 °F 96% 30.03 in 3.0 mi South 5.8 mph - N/A   Overcast
9:14 AM 63.0 °F 61.0 °F 93% 30.03 in 4.0 mi South 9.2 mph - N/A   Overcast
9:28 AM 63.0 °F 62.1 °F 97% 30.03 in 4.0 mi SSE 9.2 mph - N/A   Overcast
9:53 AM 64.0 °F 62.1 °F 93% 30.04 in 4.0 mi South 10.4 mph - N/A   Mostly Cloudy
10:20 AM 68.0 °F 62.1 °F 81% 30.03 in 10.0 mi South 9.2 mph - N/A   Scattered Clouds
10:53 AM 70.0 °F 62.1 °F 76% 30.03 in 10.0 mi SSE 11.5 mph - N/A   Partly Cloudy
11:53 AM 73.9 °F 61.0 °F 64% 30.01 in 10.0 mi SE 12.7 mph - N/A   Clear
12:53 PM 75.0 °F 59.0 °F 57% 30.00 in 10.0 mi SSE 12.7 mph - N/A   Scattered Clouds
1:53 PM 75.9 °F 59.0 °F 56% 29.98 in 10.0 mi South 11.5 mph 25.3 mph N/A   Mostly Cloudy
2:53 PM 77.0 °F 60.1 °F 56% 29.95 in 10.0 mi SSE 12.7 mph 21.9 mph N/A   Partly Cloudy
3:53 PM 78.1 °F 60.1 °F 54% 29.93 in 10.0 mi South 13.8 mph - N/A   Mostly Cloudy
4:53 PM 75.9 °F 59.0 °F 56% 29.92 in 10.0 mi South 16.1 mph - N/A   Scattered Clouds
5:53 PM 73.0 °F 59.0 °F 61% 29.92 in 10.0 mi SSE 16.1 mph - N/A   Clear
6:30 PM 71.1 °F 60.1 °F 68% 29.92 in 10.0 mi SSE 13.8 mph - N/A   Mostly Cloudy
6:39 PM 71.1 °F 60.1 °F 68% 29.92 in 10.0 mi South 13.8 mph - N/A   Overcast
6:53 PM 71.1 °F 60.1 °F 68% 29.93 in 10.0 mi South 15.0 mph - N/A   Overcast
7:53 PM 69.1 °F 61.0 °F 75% 29.93 in 10.0 mi SSE 8.1 mph - N/A   Overcast
8:53 PM 68.0 °F 61.0 °F 78% 29.95 in 10.0 mi SSE 5.8 mph - N/A   Overcast
9:53 PM 68.0 °F 62.1 °F 81% 29.95 in 10.0 mi SE 9.2 mph - N/A   Mostly Cloudy
10:53 PM 66.9 °F 63.0 °F 87% 29.96 in 10.0 mi SSE 11.5 mph - N/A   Overcast
11:53 PM 66.9 °F 63.0 °F 87% 29.97 in 10.0 mi SSE 8.1 mph - N/A   Overcast